Regional Weather Roundup
Issued by NWS

Home | Current Version | Previous Version | Graphics & Text | Print | Product List | Glossary On
Versions: 1 2 3 4 5 6 7 8 9 10 11 12 13 14 15 16 17 18 19 20 21 22 23 24 25 26 27 28 29 30 31 32 33 34 35 36 37 38 39 40 41 42 43 44 45 46 47 48 49 50
000
ASUS45 KBOU 041007
RWRCO

WEATHER ROUNDUP FOR COLORADO
NATIONAL WEATHER SERVICE DENVER/BOULDER CO
400 AM MDT MON MAY 04 2015

NOTE: "FAIR" INDICATES FEW OR NO CLOUDS BELOW 12000 FEET WITH NO
SIGNIFICANT WEATHER AND/OR OBSTRUCTIONS TO VISIBILITY.

COZ001>005-013-030-031-041100-
...NORTHWEST COLORADO...

CITY           SKY/WX    TMP DP  RH WIND       PRES   REMARKS
CRAIG          CLOUDY    44  41  89 CALM      30.05F
HAYDEN         CLOUDY    48  37  66 E7        30.06S
MEEKER         MOCLDY    46  41  82 CALM      30.05F
MOUNT WERNER   NOT AVBL
STEAMBOAT SPGS CLOUDY    44  38  80 CALM      30.07F
WALDEN         MOCLDY    34  32  93 E6        30.13S WCI  29
$$

COZ006>008-011-041100-
...WEST CENTRAL VALLEYS...

CITY           SKY/WX    TMP DP  RH WIND       PRES   REMARKS
GRAND JUNCTION PTCLDY    54  42  64 E16       29.99F
MONTROSE       MOCLDY    46  38  73 SE5       30.06S
EAGLE          MOCLDY    43  41  93 E5        30.12S
RIFLE          MOCLDY    49  46  90 E5        30.05F
DELTA          MOCLDY    51  43  73 SW3       30.03F
NUCLA          MOCLDY    50  37  62 SE9       30.06S
$$

COZ017>023-064>068-041100-
...SOUTHWEST COLORADO...

CITY           SKY/WX    TMP DP  RH WIND       PRES   REMARKS
DURANGO        PTCLDY    41  35  79 CALM      30.07F
CORTEZ         CLOUDY    43  35  73 E3        30.04F
PAGOSA SPRINGS PTCLDY    37  36  98 CALM      30.12S
TELLURIDE      MOCLDY    39  35  87 SE6       30.18S
WOLF CREEK PAS NOT AVBL
$$

COZ009-010-012-014-032>034-037-058>063-041100-
...CENTRAL COLORADO...

CITY           SKY/WX    TMP DP  RH WIND       PRES   REMARKS
ASPEN          MOCLDY    39  37  92 S5        30.11F
BUENA VISTA    NOT AVBL
COPPER MTN     CLOUDY    34  30  86 S10       30.27F WCI  26
BERTHOUD PASS  SNOW      28  19  69 E13       30.30F VSB<1/4 WCI  18
COTTONWOOD PAS CLOUDY    39  36  87 W3        30.21F
GUNNISON       PTCLDY    39  36  87 CALM      30.18S
KREMMLING      PTCLDY    37  32  81 CALM      30.12F
LEADVILLE      CLOUDY    34  33  96 CALM      30.19S
MONARCH PASS   CLOUDY    32  30  93 S5        30.38S WCI  27
SALIDA         CLOUDY    47  43  84 CALM      30.22R
SUNLIGHT       CLOUDY    37  36  93 CALM      30.25F
WILKERSON PASS SNOW      32  32 100 CALM      30.28S VSB 1/4
$$

COZ069>075-041100-
...SAN LUIS VALLEY/SANGRE DE CRISTO MOUNTAINS...

CITY           SKY/WX    TMP DP  RH WIND       PRES   REMARKS
ALAMOSA        PTCLDY    37  33  85 SW6       30.12S
LA VETA PASS   PTCLDY    36  34  93 MISG      30.22F
SAGUACHE       CLOUDY    43  36  75 NW3       30.14S
$$

COZ035-036-038>040-041100-
...NORTHERN COLORADO FRONT RANGE...

CITY           SKY/WX    TMP DP  RH WIND       PRES   REMARKS
DENVER INTL AP CLOUDY    50  46  86 CALM      30.09F
DMNS CITY PARK   N/A     51  47  87 S1        30.10S
AURORA         MOCLDY    50  48  93 E5        30.11S
FRONT RANGE AP NOT AVBL
ERIE MUNI ARPT RAIN      51  49  92 CALM      30.10R
BOULDER MUN AP RAIN      48  48 100 CALM      30.10R
CENTENNIAL     CLOUDY    50  46  86 NE3       30.10S
BROOMFIELD     DRIZZLE   50  46  87 CALM      30.11S
FORT COLLINS   CLOUDY    48  45  87 NW5       30.11R
LONGMONT       RAIN      52  49  89 CALM      30.12R
$$

COZ041-046-047-076>085-087-088-041100-
...PIKES PEAK/PALMER DIVIDE AND SOUTHERN FOOTHILLS...

CITY           SKY/WX    TMP DP  RH WIND       PRES   REMARKS
COLO. SPRINGS  LGT RAIN  48  46  93 N7        30.11S
A. F. ACADEMY  LGT RAIN  47  47  99 NE6       30.11S
ELLICOTT       CLOUDY   N/A N/A N/A NE5       30.09S
FALCON         LGT RAIN  46  45  95 N5        30.14S
FORT CARSON    CLOUDY    48  46  92 N6        30.08R
LIMON          CLOUDY    50  46  86 N3        30.07F
MONUMENT HILL  RAIN      45  43  93 CALM      30.13S
TRINIDAD       CLOUDY    46  41  82 NW6       30.08S
$$

COZ042>045-048>051-090-091-041100-
...NORTHEAST COLORADO...

CITY           SKY/WX    TMP DP  RH WIND       PRES   REMARKS
GREELEY ARPT   CLOUDY    52  43  71 E10       30.10R
AKRON          CLOUDY    51  39  63 E13       30.08S
BURLINGTON     LGT RAIN  51  47  86 N12       30.04F
WRAY           CLOUDY    53  39  58 N3        30.05S
STERLING       CLOUDY    52  41  66 E3        30.08S
HOLYOKE        NOT AVBL
FORT MORGAN    CLOUDY    50 -10   8 E8        30.09S
$$

COZ086-089-092>099-041100-
...SOUTHEAST COLORADO...

CITY           SKY/WX    TMP DP  RH WIND       PRES   REMARKS
PUEBLO         LGT RAIN  55  48  77 N9        30.04F
LA JUNTA       CLOUDY    56  49  77 N7        30.00F
LAMAR          CLOUDY    53  50  89 E7        29.96F
SPRINGFIELD      N/A     48  45  89 SW6       29.97F
$$


USA.gov is the U.S. government's official web portal to all federal, state and local government web resources and services.